User: anonymous   Login
Location: Newark
(39.0622°N, 106.5590°E)
Time: 21:17:37
(UTC+00:00)
Language:

deb Explorer IX - Orbit

View from above orbital plane
View from above orbital plane
View from above satellite
View from above satellite

Ground track
Ground track

The orbit data is extracted from the following two-line orbital elements,

1    85U 61004C   20017.22480679 +.00003453 +00000-0 +77338-3 0  9998
2    85 038.7708 077.2617 0383940 205.4571 152.6806 14.20234232909446
Epoch (UTC): 17 January 2020 05:23:43
Eccentricity: 0.0383940
inclination: 38.7708°
perigee height: 548 km
apogee height: 1101 km
right ascension of ascending node: 77.2617°
argument of perigee: 205.4571°
revolutions per day: 14.20234232
mean anomaly at epoch: 152.6806°
orbit number at epoch: 90944

The dashed part of the orbit path shows where the satellite is in the earth's shadow,  

DLR